Pond Inlet,

12:16 AM EDT on May 26, 2017 (GMT -0400)
Pond Inlet

Weather History for CYIO - April, 2013

Change the Weather History Date:

Monday, April 22, 2013

  Actual Average Record
Temperature  
Mean Temperature -10 °F -  
Max Temperature -1 °F 15 °F 21 °F (2016)
Min Temperature -18 °F 5 °F -18 °F (2011)
Degree Days  
Heating Degree Days 74    
Moisture  
Dew Point -17 °F    
Average Humidity 66    
Maximum Humidity 78    
Minimum Humidity 50    
Precipitation  
Precipitation 0.02 in - - ()
Sea Level Pressure  
Sea Level Pressure 29.76 in    
Wind  
Wind Speed 5 mph ()    
Max Wind Speed 9 mph    
Max Gust Speed -    
Visibility 9.9 miles    
Events Snow    
Averages and records for this station are not official NWS values.
T = Trace of Precipitation, MM = Missing Value Source: Averaged Metar Reports

Daily Weather History Graph

Daily Weather History Graph

Search for Another Location

Airport or City:

Trip Planner

Search our weather history database for the weather conditions in past years. The results will help you decide how hot, cold, wet, or windy it might be!

Date:

Astronomy

Apr. 22, 2013 Rise Set
Actual Time 3:56 AM EDT 10:29 PM EDT
Civil Twilight 1:42 AM EDT 12:37 AM EDT
Nautical Twilight Sun does not set Sun does not set
Astronomical Twilight Sun does not set Sun does not set
Moon 5:01 PM EDT (4/22) 4:24 AM EDT (4/22)
Length of Visible Light 22h 54m
Length of Day
18h 32m
Waxing Gibbous, 87% of the Moon is Illuminated
Apr 22
Waxing Gibbous
Apr 25
Full
May 2
Last Quarter
May 9
New
May 18
First Quarter

Hourly Weather History & Observations

Time (EDT) Temp. Windchill Dew Point Humidity Pressure Visibility Wind Dir Wind Speed Gust Speed Precip Events Conditions
12:00 AM -14.8 °F -30.8 °F -22.0 °F 70% 29.70 in 9.0 mi South 6.9 mph - N/A Snow Light Snow
1:00 AM -14.8 °F -29.1 °F -22.0 °F 70% 29.71 in 9.0 mi South 5.8 mph - N/A Snow Light Snow
2:00 AM -18 °F - -25 °F 58% 29.72 in 10 mi South 8.1 mph - - Snow Light Snow
2:00 AM -18.4 °F -36.6 °F -23.8 °F 76% 29.72 in 9.0 mi South 8.1 mph - N/A Snow Light Snow
3:00 AM -14.8 °F -32.2 °F -22.0 °F 70% 29.73 in 9.0 mi South 8.1 mph - N/A Snow Light Snow
4:00 AM -14.8 °F -33.5 °F -22.0 °F 70% 29.73 in 9.0 mi South 9.2 mph - N/A Snow Light Snow
5:00 AM -13 °F - -21 °F 53% 29.74 in 10 mi SSE 8.1 mph - - Snow Light Snow
5:00 AM -13.0 °F -30.0 °F -20.2 °F 70% 29.74 in 9.0 mi SSE 8.1 mph - N/A Snow Light Snow
5:03 AM -13.0 °F -31.3 °F -20.2 °F 70% 29.74 in 9.0 mi SSE 9.2 mph - N/A Snow Light Snow
5:11 AM -14.8 °F -33.5 °F -22.0 °F 70% 29.74 in 9.0 mi SSE 9.2 mph - N/A Snow Light Snow
6:00 AM -13.0 °F -31.3 °F -20.2 °F 70% 29.75 in 9.0 mi SSE 9.2 mph - N/A Snow Light Snow
7:00 AM -11.2 °F -29.0 °F -20.2 °F 64% 29.76 in 9.0 mi SSE 9.2 mph - N/A Snow Light Snow
8:00 AM -11 °F - -20 °F 50% 29.77 in 10 mi SSE 6.9 mph - - Snow Light Snow
8:00 AM -11.2 °F -26.4 °F -20.2 °F 64% 29.77 in 9.0 mi SSE 6.9 mph - N/A Snow Light Snow
9:00 AM -9.4 °F -24.3 °F -18.4 °F 65% 29.77 in 9.0 mi SSE 6.9 mph - N/A Snow Light Snow
11:00 AM -6 °F - -15 °F 50% 29.77 in 10 mi SSE 2.3 mph - - Snow Light Snow
11:00 AM -5.8 °F - -14.8 °F 65% 29.77 in 15.0 mi Calm Calm - N/A   Partly Cloudy
12:00 PM -4.0 °F - -14.8 °F 60% 29.77 in 15.0 mi Calm Calm - N/A   Partly Cloudy
1:00 PM -2.2 °F - -14.8 °F 55% 29.77 in 30.0 mi Calm Calm - N/A   Clear
2:00 PM -2.2 °F - -13.0 °F 60% 29.77 in 30.0 mi Calm Calm - N/A   Clear
3:00 PM -2.2 °F - -11.2 °F 66% 29.77 in 30.0 mi Calm Calm - N/A   Clear
4:00 PM -2.2 °F - -11.2 °F 66% 29.78 in 30.0 mi Calm Calm - N/A   Partly Cloudy
5:00 PM -4 °F - -10 °F 61% 29.78 in 10 mi South 2.3 mph - - Snow Light Snow
5:00 PM -4.0 °F - -9.4 °F 78% 29.78 in 30.0 mi South 2.3 mph - N/A   Partly Cloudy
6:00 PM -4.0 °F - -11.2 °F 71% 29.78 in 15.0 mi Calm Calm - N/A   Partly Cloudy
7:00 PM -5.8 °F -21.2 °F -11.2 °F 77% 29.78 in 9.0 mi ENE 8.1 mph - N/A Snow Light Snow
8:00 PM -7 °F - -13 °F 65% 29.78 in 10 mi ENE 4.6 mph - - Snow Light Snow
8:00 PM -7.6 °F -18.8 °F -13.0 °F 77% 29.78 in 9.0 mi ENE 4.6 mph - N/A Snow Light Snow
9:00 PM -7.6 °F - -13.0 °F 77% 29.78 in 9.0 mi ENE 2.3 mph - N/A Snow Light Snow
10:00 PM -11.2 °F - -18.4 °F 70% 29.79 in 9.0 mi East 2.3 mph - N/A Snow Light Snow
11:00 PM -12 °F - -20 °F 51% 29.78 in 10 mi East 1.2 mph - - Snow Light Snow
11:00 PM -13.0 °F - -20.2 °F 70% 29.78 in 9.0 mi Calm Calm - N/A Snow Light Snow